WetterOnline ( https://www.wetteronline.de )

Wetter aktuell Paderborn

Aktuelles Wetter: Bad Lippspringe (158m)

6-stündlich | Neueste Meldungen
Ortszeit Temperatur Wetter
Fr, 17.09. 2:00 11.3° C wolkig
Do, 16.09. 20:00 15.6° C bedeckt
Do, 16.09. 14:00 15.7° C Sprühregen
Do, 16.09. 8:00 14.0° C bedeckt
Do, 16.09. 2:00 16.1° C bewölkt
Mi, 15.09. 20:00 18.8° C wolkig
Mi, 15.09. 14:00 21.4° C bedeckt
Mi, 15.09. 8:00 19.7° C wolkig
Ortszeit Temperatur Wetter
Fr, 17.09. 4:30 11.1° C leicht bewölkt
Fr, 17.09. 4:20 11.1° C leicht bewölkt
Fr, 17.09. 4:10 11.3° C leicht bewölkt
Fr, 17.09. 4:00 11.5° C bewölkt
Fr, 17.09. 3:50 11.5° C bewölkt
Fr, 17.09. 3:40 11.4° C bewölkt
Fr, 17.09. 3:30 11.1° C bedeckt
Fr, 17.09. 3:00 11.0° C wolkig
Fr, 17.09. 2:30 10.2° C Nebel
Fr, 17.09. 2:00 11.3° C wolkig
Fr, 17.09. 1:30 11.2° C bewölkt
Ortszeit Relative Feuchte Sichtweite
Fr, 17.09. 2:00 98% 9 km
Do, 16.09. 20:00 90% 35 km
Do, 16.09. 14:00 87% 21 km
Do, 16.09. 8:00 85% 50 km
Do, 16.09. 2:00 92% 17 km
Mi, 15.09. 20:00 95% 13 km
Mi, 15.09. 14:00 79% 55 km
Mi, 15.09. 8:00 81% 35 km
Ortszeit Relative Feuchte Sichtweite
Fr, 17.09. 4:30 98% 4.0 km
Fr, 17.09. 4:20 98% -
Fr, 17.09. 4:10 98% -
Fr, 17.09. 4:00 98% 10 km
Fr, 17.09. 3:50 98% -
Fr, 17.09. 3:40 99% -
Fr, 17.09. 3:30 98% 9 km
Fr, 17.09. 3:00 99% 9 km
Fr, 17.09. 2:30 99% 0.2 km
Fr, 17.09. 2:00 98% 9 km
Fr, 17.09. 1:30 99% 11 km
Ortszeit Niederschlagsmenge Niederschlagsart
Fr, 17.09. 2:00 0.0 l/m2 in 6 Std. -
Do, 16.09. 20:00 3 l/m2 in 12 Std. Regen
Do, 16.09. 14:00 0.1 l/m2 in 6 Std. Regen
Do, 16.09. 8:00 0.1 l/m2 in 12 Std. -
Do, 16.09. 2:00 0.1 l/m2 in 6 Std. Regen
Mi, 15.09. 20:00 1 l/m2 in 12 Std. Regen
Mi, 15.09. 14:00 0.7 l/m2 in 6 Std. Regen
Mi, 15.09. 8:00 0.1 l/m2 in 12 Std. Regen
Ortszeit Niederschlagsmenge Niederschlagsart
Fr, 17.09. 4:30 0.0 l/m2 in 1 Std. -
Fr, 17.09. 4:20 keine Meldung -
Fr, 17.09. 4:10 keine Meldung -
Fr, 17.09. 4:00 0.0 l/m2 in 1 Std. -
Fr, 17.09. 3:50 keine Meldung -
Fr, 17.09. 3:40 keine Meldung -
Fr, 17.09. 3:30 0.0 l/m2 in 1 Std. -
Fr, 17.09. 3:00 0.0 l/m2 in 1 Std. -
Fr, 17.09. 2:30 0.0 l/m2 in 1 Std. -
Fr, 17.09. 2:00 0.0 l/m2 in 1 Std. -
Fr, 17.09. 1:30 0.0 l/m2 in 1 Std. -
Ortszeit Stärke Spitze Richtung
km/h Bft. km/h Grad Sektor
Fr, 17.09. 2:00 4 1 11 200° S
Do, 16.09. 20:00 6 1 24 260° W
Do, 16.09. 14:00 11 2 25 280° W
Do, 16.09. 8:00 11 2 25 270° W
Do, 16.09. 2:00 9 2 41 290° W
Mi, 15.09. 20:00 7 2 29 260° W
Mi, 15.09. 14:00 11 2 25 210° SW
Mi, 15.09. 8:00 4 1 11 180° S
Ortszeit Stärke Spitze Richtung
km/h Bft. km/h Grad Sektor
Fr, 17.09. 4:30 4 1 7 200° S
Fr, 17.09. 4:20 4 1 - 200° S
Fr, 17.09. 4:10 4 1 - 210° SW
Fr, 17.09. 4:00 4 1 4 200° S
Fr, 17.09. 3:50 4 1 - 200° S
Fr, 17.09. 3:40 4 1 - 200° S
Fr, 17.09. 3:30 0 0 4 - -
Fr, 17.09. 3:00 4 1 7 160° S
Fr, 17.09. 2:30 4 1 4 200° S
Fr, 17.09. 2:00 4 1 7 200° S
Fr, 17.09. 1:30 4 1 4 190° S
Ortszeit Untergrenze Bedeckung Gattung
total tief tief mittel hoch
Fr, 17.09. 2:00 1080 m 5/8 5/8 - - -
Do, 16.09. 20:00 900 m 8/8 8/8 - - -
Do, 16.09. 14:00 330 m 8/8 8/8 - - -
Do, 16.09. 8:00 480 m 8/8 8/8 - - -
Do, 16.09. 2:00 330 m 7/8 7/8 - - -
Mi, 15.09. 20:00 300 m 6/8 6/8 - - -
Mi, 15.09. 14:00 810 m 8/8 8/8 - - -
Mi, 15.09. 8:00 1350 m 8/8 3/8 - - -
Ortszeit Bedeckungsgrad in Achtel und Wolkenuntergrenze
Fr, 17.09. 4:30 1(690m)
Fr, 17.09. 4:20 1(690m) 2(1440m)
Fr, 17.09. 4:10 3(720m) 3(1410m)
Fr, 17.09. 4:00 7(720m)
Fr, 17.09. 3:50 7(720m)
Fr, 17.09. 3:40 6(660m) 7(840m)
Fr, 17.09. 3:30 1(390m) 8(690m)
Fr, 17.09. 3:00 5(690m) 7(720m)
Fr, 17.09. 2:30 keine Wolken
Fr, 17.09. 2:00 5(1080m)
Fr, 17.09. 1:30 2(660m) 7(1200m)
Ortszeit Luftdruck NN (hPa) Tendenz (hPa in 3 Std.)
Fr, 17.09. 2:00 1018 + 0,2
Do, 16.09. 20:00 1016 + 0,5
Do, 16.09. 14:00 1016 + 0,5
Do, 16.09. 8:00 1015 + 0,6
Do, 16.09. 2:00 1013 + 0,5
Mi, 15.09. 20:00 1010 + 0,5
Mi, 15.09. 14:00 1010 - 0,7
Mi, 15.09. 8:00 1011 - 0,5
Ortszeit Luftdruck NN (hPa) Tendenz (hPa in 3 Std.)
Fr, 17.09. 4:30 1017 - 0,5
Fr, 17.09. 4:20 1017 keine Meldung
Fr, 17.09. 4:10 1017 keine Meldung
Fr, 17.09. 4:00 1017 - 0,6
Fr, 17.09. 3:50 1017 keine Meldung
Fr, 17.09. 3:40 1017 keine Meldung
Fr, 17.09. 3:30 1017 - 0,1
Fr, 17.09. 3:00 1017 - 0,1
Fr, 17.09. 2:30 1018 + 0,1
Fr, 17.09. 2:00 1018 + 0,2
Fr, 17.09. 1:30 1018 + 0,3
Ortszeit Schneehöhe (cm)
Fr, 17.09. 2:00 -
Do, 16.09. 20:00 -
Do, 16.09. 14:00 -
Do, 16.09. 8:00 -
Do, 16.09. 2:00 -
Mi, 15.09. 20:00 -
Mi, 15.09. 14:00 -
Mi, 15.09. 8:00 -
Ortszeit Schneehöhe (cm)
Fr, 17.09. 4:30 -
Fr, 17.09. 4:20 -
Fr, 17.09. 4:10 -
Fr, 17.09. 4:00 -
Fr, 17.09. 3:50 -
Fr, 17.09. 3:40 -
Fr, 17.09. 3:30 -
Fr, 17.09. 3:00 -
Fr, 17.09. 2:30 -
Fr, 17.09. 2:00 -
Fr, 17.09. 1:30 -
Link zu dieser Seite / Seite empfehlen

Das Wetter in ...